Location: Silverado Museum
(38.5077°N, 122.4694°W)
Time: 02:09:28
(UTC+00:00)

Daily predictions for brighter satellites

Satellite Brightness Start Highest point End
(mag) Time Altitude Azimuth Time Altitude Azimuth Time Altitude Azimuth
CZ-2D R/B 4.0 03:20:53 10° S 03:24:42 58° W 03:28:31 10° NNW
Falcon 9 debris 3.8 03:23:11 10° NW 03:26:31 42° NE 03:29:48 10° ESE
Cosmos 2084 3.4 03:25:50 10° NW 03:30:02 87° WSW 03:34:07 10° SSE
OAO 3 Rocket 4.1 03:26:27 10° SW 03:30:44 32° SSE 03:34:58 10° E
FALCON 9 DEB 3.7 03:28:38 10° NW 03:31:59 44° NE 03:35:18 10° ESE
Cosmos 1939 Rocket 3.6 03:29:03 10° S 03:33:04 58° W 03:37:05 10° NNW
Unknown 2.8 03:30:31 10° NW 03:33:33 84° SW 03:36:33 10° SE
Cosmos 1400 Rocket 3.7 03:29:50 10° NNW 03:33:40 51° W 03:37:25 10° S
CZ-4 R/B 4.4 03:31:35 10° SW 03:33:57 15° W 03:36:18 10° WNW
Cosmos 1656 Rocket 4.0 03:29:38 10° NNW 03:35:05 48° ENE 03:40:26 10° SE
Atlas Centaur 2 4.0 03:34:22 10° SSW 03:35:29 11° SSW 03:36:38 10° S
Unknown 3.3 03:36:30 10° WNW 03:39:14 47° SW 03:41:54 10° SSE
USA 186 1.2 03:37:08 10° SSE 03:39:23 48° ENE 03:41:48 10° N
OAO 2 Rocket 3.6 03:36:14 10° WSW 03:41:19 57° S 03:46:12 11° E
Meteor 1-25 Rocket 4.5 03:36:34 10° SSE 03:42:01 50° E 03:47:34 10° NNE
Okean 1-7 3.3 03:39:16 10° N 03:43:32 48° E 03:47:47 10° SSE
SPOT 3 Rocket 3.6 03:42:06 10° SSE 03:47:14 69° ENE 03:52:24 10° N
SJ-6B 2.8 03:43:28 10° SSE 03:47:18 66° ENE 03:51:17 10° N
CZ-2C R/B 4.1 03:49:06 13° ESE 03:52:12 23° ENE 03:55:54 10° NNE
Unknown 3.2 03:50:56 10° NW 03:54:26 74° NE 03:56:58 17° SE
Cosmos 220 Rocket 4.0 03:51:40 10° NNW 03:55:57 80° WSW 04:00:11 10° SSE
Cosmos 2369 Rocket 3.3 03:50:56 10° NW 03:56:17 44° WSW 04:01:34 10° S
Cosmos 1602 4.2 03:58:54 10° SSE 04:02:26 37° E 04:05:59 10° NNE
Resurs 01 Rocket 2.3 04:01:01 16° SE 04:03:56 36° ENE 04:07:58 10° N
Aureole 2 4.4 04:04:14 10° S 04:07:19 44° ESE 04:10:12 10° NNE
ASTRO E2 3.8 04:04:08 10° SW 04:07:31 27° S 04:09:04 21° SE
Cosmos 1703 Rocket 3.9 04:05:19 10° NNW 04:09:45 67° W 04:14:08 10° S
Cosmos 1315 Rocket 3.8 04:07:18 10° NNW 04:11:18 50° W 04:15:18 10° S
Abrixas rocket 2.2 04:08:56 10° WSW 04:11:59 70° NNW 04:15:04 10° NE
Meteor 1-20 Rocket 4.3 04:07:41 10° S 04:13:32 86° W 04:19:20 10° N
ADEOS Rocket 3.1 04:10:10 10° NNE 04:16:07 63° ESE 04:22:41 10° S
Okean 3 4.3 04:14:14 10° NNE 04:17:57 30° ENE 04:19:08 26° ESE
Cosmos 2292 Rocket 3.5 04:14:22 10° N 04:19:30 88° WSW 04:22:47 14° S
Cosmos 773 Rocket 3.9 04:16:33 10° NNW 04:21:45 83° ENE 04:25:29 19° SSE
ASTEX 1 4.1 04:19:27 10° NNE 04:23:54 33° E 04:25:27 27° SE
CENTAUR R/B 4.2 04:17:04 10° NW 04:24:45 43° WSW 04:32:47 10° S
COSMOS 2406 3.9 04:23:06 20° SSE 04:26:01 31° ESE 04:30:57 10° NE
Nadezhda 2 Rocket 4.4 04:20:03 10° N 04:26:12 84° E 04:32:08 11° S
Hubble Space Telescope 2.5 04:24:43 10° SW 04:27:32 18° S 04:28:07 17° S
Shenzhou-11 Module 2.3 04:28:25 10° SW 04:30:36 43° SSW 04:30:36 43° SSW
H-2A R/B 2.2 04:27:34 11° S 04:32:28 72° WSW 04:37:28 10° NNW
Meteor 2-19 Rocket 4.4 04:27:48 10° N 04:33:58 75° E 04:38:27 19° SSE
Unknown 4.3 04:33:22 10° NW 04:37:20 43° NE 04:38:36 33° E
SL-24 R/B 4.3 04:36:03 27° SSE 04:38:38 66° E 04:43:25 10° N
Unknown 4.3 04:35:04 10° NW 04:39:03 44° NE 04:40:15 34° E
Unknown 4.2 04:36:40 10° NW 04:40:40 46° NE 04:41:47 36° E
SL-08 RB Rocket 3.7 04:38:03 23° S 04:40:49 81° WSW 04:45:23 10° NNW
CZ-2C R/B 3.1 04:36:19 10° NNE 04:41:10 37° E 04:42:06 34° ESE
Unknown 4.2 04:38:23 10° NW 04:42:25 47° NE 04:43:28 37° ENE
BREEZE M DEB (TANK) 2.3 04:41:46 10° WSW 04:48:56 - NE 04:43:08 38° WSW
Unknown 4.1 04:40:09 10° NW 04:44:12 50° NE 04:45:10 41° E
Cosmos 1733 Rocket 2.9 04:42:24 32° S 04:44:16 69° E 04:48:35 10° NNE
Cosmos 923 Rocket 4.4 04:39:48 10° N 04:44:57 46° ENE 04:46:25 37° ESE
MetOp-A 4.1 04:41:36 24° SSE 04:44:58 88° WSW 04:50:22 10° NNW
Unknown 4.1 04:41:37 10° NW 04:45:39 50° NE 04:46:34 41° ENE
Unknown 4.0 04:43:24 10° NW 04:47:29 53° NE 04:48:18 45° E
Cosmos 1898 Rocket 4.2 04:47:55 33° E 04:47:55 33° E 04:52:12 10° NE
Unknown 4.0 04:44:50 10° NW 04:48:55 51° NE 04:49:42 44° ENE
Unknown 4.0 04:44:57 10° NW 04:49:02 53° NE 04:49:48 45° ENE
Unknown 4.4 04:46:14 10° WNW 04:49:23 31° SW 04:49:55 29° SSW
Unknown 3.9 04:46:40 10° NW 04:50:45 55° NE 04:51:27 48° ENE
CZ-3B R/B 4.2 04:30:30 10° W 04:51:21 38° SSW 04:54:53 27° SSE
Unknown 3.6 04:47:48 10° NW 04:51:50 65° NE 04:52:21 57° E
Cosmos 1674 Rocket 3.9 04:47:56 10° N 04:52:07 44° E 04:52:10 44° E
Cosmos 1538 Rocket 4.3 04:47:53 10° NNW 04:53:00 63° WSW 04:55:43 27° S
Cosmos 44 2.9 04:51:01 10° NNW 04:55:29 81° WSW 04:56:23 55° SSE
Unknown 3.7 04:51:34 10° NW 04:55:40 60° NE 04:56:10 55° ENE
USA 234 4.0 04:52:05 21° S 04:56:06 44° SW 05:02:20 10° WNW
BREEZE-M DEB (TANK) 4.4 04:55:30 10° NNW 04:56:36 15° NNE 04:56:36 15° NNE
ARGOS 4.1 04:52:31 12° S 04:57:18 44° W 05:02:25 10° NNW
Unknown 3.7 04:53:15 10° NW 04:57:22 62° NE 04:57:48 58° ENE
Unknown 3.7 04:53:43 10° WNW 04:57:22 54° SW 04:57:33 53° SSW
Cosmos 1680 Rocket 3.9 04:52:40 10° N 04:57:43 45° ENE 04:58:29 42° E
Meteor 2-4 Rocket 3.6 04:52:34 10° N 04:57:54 63° E 04:59:16 47° SE
Okean 1 4.3 04:54:18 10° NNW 04:58:05 44° W 04:59:58 25° SSW
Unknown 3.6 04:54:56 10° NW 04:59:04 65° NE 04:59:25 61° ENE
Terra 3.7 05:01:04 16° ENE 05:01:04 16° ENE 05:03:34 10° NNE
Unknown 3.6 04:56:36 10° NW 05:00:44 67° NE 05:01:01 64° ENE
Unknown 3.5 04:59:40 10° NW 05:03:46 72° NE 05:03:53 71° NE
Unknown 3.5 04:59:49 10° NW 05:03:58 72° NE 05:04:07 71° ENE
Unknown 3.5 05:01:43 10° NW 05:05:30 67° SW 05:05:30 67° SW
Unknown 3.5 05:01:29 10° NW 05:05:38 75° NE 05:05:44 74° NE
Geosat 4.0 05:04:49 53° ESE 05:05:44 63° ENE 05:10:43 10° NNW
Unknown 3.5 05:03:08 10° NW 05:07:17 76° NE 05:07:18 76° NE
Meteor 1-11 Rocket 3.8 05:05:40 42° SSE 05:07:36 66° E 05:13:30 10° NNE
GP-B 3.1 05:03:45 10° N 05:07:55 60° ENE 05:07:55 60° ENE
SPOT 5 4.1 05:09:01 24° NE 05:09:01 24° NE 05:11:44 10° NNE
Aureole 2 Rocket 4.3 05:06:14 10° NNW 05:07:12 20° N 05:07:12 20° N
Unknown 3.5 05:04:44 10° NW 05:08:51 77° NNE 05:08:51 77° NNE
Cosmos 1809 Rocket 4.4 05:03:11 10° N 05:09:20 64° E 05:10:53 49° SE
Cosmos 1386 Rocket 4.4 05:03:31 10° N 05:09:37 70° E 05:11:22 48° SSE
Unknown 3.5 05:06:30 10° NW 05:10:32 80° N 05:10:32 80° N
Cosmos 2098 Rocket 4.0 05:07:00 10° N 05:10:46 40° ENE 05:10:46 40° ENE
Unknown 3.6 05:07:57 10° NW 05:11:57 76° N 05:11:57 76° N
Cosmos 1553 Rocket 4.4 05:06:55 10° SSW 05:13:02 62° W 05:19:19 10° N
OAO 3 Rocket 3.5 05:09:11 10° WSW 05:13:16 51° SSW 05:13:16 51° SSW
Unknown 4.2 05:11:05 10° WNW 05:14:20 45° WSW 05:14:20 45° WSW
Cosmos 1515 4.0 05:11:21 10° N 05:14:33 61° N 05:14:33 61° N
Unknown 3.7 05:11:19 10° NW 05:15:11 75° NNW 05:15:11 75° NNW
Unknown 3.7 05:12:59 10° NW 05:16:48 73° NNW 05:16:48 73° NNW
Meteor 2-14 Rocket 4.5 05:11:47 10° N 05:17:48 58° E 05:18:38 54° ESE
ERS-1 Rocket 3.3 05:18:27 49° ENE 05:18:27 49° ENE 05:23:10 10° N
Unknown 3.8 05:14:50 10° NW 05:18:33 70° WNW 05:18:33 70° WNW
Meteor 2-21 4.4 05:14:07 10° N 05:20:16 71° E 05:21:27 57° SE
Unknown 3.8 05:16:18 10° NW 05:19:58 68° NW 05:19:58 68° NW
Unknown 3.9 05:17:59 10° NW 05:21:36 66° WNW 05:21:36 66° WNW
Unknown 4.0 05:21:21 10° NW 05:24:49 60° WNW 05:24:49 60° WNW
OAO 2 Rocket 3.8 05:20:55 10° W 05:25:09 46° SW 05:25:09 46° SW
SPOT 1/Viking Rocket 3.6 05:26:59 61° ENE 05:26:59 61° ENE 05:32:06 10° N
Unknown 4.1 05:22:58 10° NW 05:26:22 57° WNW 05:26:22 57° WNW
Unknown 4.2 05:24:38 10° NW 05:27:59 55° WNW 05:27:59 55° WNW
Cosmos 1536 3.9 05:31:48 40° N 05:31:48 40° N 05:34:30 10° N
Unknown 4.3 05:26:17 10° NW 05:29:32 52° WNW 05:29:32 52° WNW
CZ-2C R/B 4.2 05:30:10 25° SW 05:31:54 33° W 05:36:10 10° NNW
Unknown 4.4 05:27:58 10° NW 05:31:10 50° WNW 05:31:10 50° WNW
Spot 2 Rocket 4.4 05:34:44 37° SW 05:36:00 44° W 05:40:52 10° NNW
Cosmos 44 Rocket 3.7 05:32:07 10° NNW 05:36:08 54° NNE 05:36:08 54° NNE
Meteor 2-21 Rocket 4.3 05:30:59 10° N 05:37:11 75° E 05:37:39 71° ESE
Cosmos 1709 Rocket 3.8 05:31:30 10° N 05:37:37 70° E 05:37:53 69° E
Cosmos 2315 Rocket 3.9 05:38:00 69° SE 05:38:36 75° E 05:44:57 10° N
Cosmos 1937 Rocket 3.9 05:39:55 54° NE 05:39:55 54° NE 05:44:06 10° NNE
Resurs 01 Rocket 3.9 05:38:36 14° SW 05:40:30 19° W 05:43:37 10° NW
Cosmos 1908 Rocket 4.1 05:41:27 56° NNW 05:41:27 56° NNW 05:45:07 10° N
Cosmos 2082 Rocket 3.8 05:45:35 23° NE 05:45:35 23° NE 05:47:49 10° NE
Aureole 3 Rocket 4.2 05:44:15 37° WNW 05:44:15 37° WNW 05:46:59 10° N
Cosmos 990 Rocket 4.0 05:45:22 76° NW 05:45:22 76° NW 05:50:27 10° NNE
Cosmos 1833 Rocket 3.4 05:49:58 43° NE 05:49:58 43° NE 05:53:45 10° NNE
SJ 16-02 3.0 05:58:28 30° N 05:58:28 30° N 06:00:45 10° NNE
Cosmos 158 Rocket 4.5 05:55:50 10° NNW 06:00:06 57° N 06:00:06 57° N
Cosmos 1697 Rocket 3.4 05:58:14 10° NNW 06:02:47 45° NNE 06:02:47 45° NNE
Cosmos 1656 3.9 05:58:07 10° NNW 06:03:01 67° N 06:03:01 67° N
Meteor 1-23 Rocket 4.4 05:59:24 10° NNW 06:04:36 71° NW 06:04:36 71° NW
CZ-2C R/B 4.5 06:16:58 10° NNW 06:21:16 26° WNW 06:23:36 19° WSW
Thor Agena Rocket 4.4 06:16:50 10° N 06:21:26 45° WNW 06:21:26 45° WNW
Cosmos 1980 Rocket 3.4 06:20:06 10° N 06:23:56 34° NNE 06:23:56 34° NNE
MOS 1 Rocket 4.4 06:23:43 10° N 06:28:00 49° NW 06:28:00 49° NW
Cosmos 2369 4.5 06:28:19 10° NNW 06:32:22 49° NNW 06:32:22 49° NNW
Terra 3.5 06:39:57 30° NW 06:39:57 30° NW 06:42:32 10° NNW
NOSS 3-1 (C) 4.4 06:35:44 10° NNW 06:43:13 53° NE 06:43:33 53° ENE
Cosmos 2322 Rocket 4.1 07:07:38 10° N 07:10:38 23° NNE 07:10:38 23° NNE
Cosmos 2082 Rocket 4.0 07:27:23 27° NW 07:27:23 27° NW 07:31:31 10° N
SL-16 R/B 3.9 07:36:01 10° NNW 07:38:54 29° N 07:38:54 29° N
NOSS 3-1 (A) 4.3 07:34:45 10° NNW 07:41:19 66° N 07:41:19 66° N
Mayak 2.0 07:46:56 10° NNW 07:47:09 11° NNW 07:47:09 11° NNW
CZ-4C R/B 4.1 08:00:29 25° NNE 08:00:29 25° NNE 08:02:57 10° NNE
Cosmos 2360 Rocket 4.1 07:59:06 10° N 08:02:00 25° NNE 08:02:00 25° NNE
SL-16 R/B 4.4 08:39:57 21° ENE 08:40:28 21° ENE 08:44:54 10° NNE
Cosmos 2333 Rocket 4.1 08:42:13 10° N 08:46:00 25° NE 08:46:00 25° NE
USA 215 3.9 08:49:38 10° NE 08:54:58 50° N 08:54:58 50° N
Cosmos 2322 Rocket 4.5 08:51:18 10° NW 08:52:25 16° NW 08:52:25 16° NW
CZ-2D R/B 3.9 09:13:39 10° NNE 09:16:39 27° ENE 09:16:39 27° ENE
Centaur D-1A AC-31 4.3 09:25:57 37° SE 09:26:20 37° SE 10:13:00 10° E
Centaur D-1A AC-31 4.3 09:25:58 37° SE 09:26:20 37° SE 10:12:59 10° E
Centaur D-1A AC-31 4.3 09:25:57 37° SE 09:26:21 37° SE 10:13:00 10° E
Centaur D-1A AC-31 4.3 09:25:58 37° SE 09:26:21 37° SE 10:13:00 10° E
USA 267 3.6 09:27:46 59° NE 09:27:56 60° NE 09:34:21 10° NW
Cosmos 2227 Rocket 4.0 09:36:00 24° E 09:36:00 24° E 09:39:20 10° NE
ADEOS II 4.4 09:31:57 10° ENE 09:34:40 15° E 09:34:40 15° E
COSMOS 2428 4.0 09:32:59 10° NNW 09:36:17 36° N 09:36:17 36° N
NOSS 3-3 (C) 4.5 09:44:32 54° NNE 09:44:32 54° NNE 09:49:32 10° NNE
NOSS 3-3 (A) 4.5 09:44:32 54° NNE 09:44:32 54° NNE 09:49:33 10° NNE
COSMOS 2455 3.7 09:38:16 10° NNW 09:42:40 47° N 09:42:40 47° N
Cosmos 2297 Rocket 3.4 09:52:15 35° ENE 09:52:15 35° ENE 09:56:21 10° NE
Cosmos 2219 Rocket 3.6 09:51:28 10° NNW 09:54:19 31° NNW 09:54:19 31° NNW
Cosmos 1605 Rocket 4.4 09:53:42 10° N 09:58:44 59° NNW 09:58:44 59° NNW
NOSS 0 Rocket 4.1 10:01:02 10° NNW 10:06:54 67° NE 10:06:54 67° NE
Cosmos 1452 Rocket 4.4 10:13:42 44° ENE 10:13:42 44° ENE 10:17:55 10° NNE
Cosmos 2237 Rocket 2.8 10:11:40 10° NNW 10:17:15 54° ENE 10:17:53 52° E
Cosmos 1980 4.1 10:12:42 10° NNW 10:18:18 60° ENE 10:18:25 60° ENE
IRS-P3 4.5 10:16:26 10° NNE 10:20:57 63° NNE 10:20:57 63° NNE
ATLAS 2AS CENTAUR R/B 3.4 10:15:50 10° NNW 10:23:23 57° NE 10:30:15 10° SE
SL-16 R/B 3.0 10:25:04 47° NW 10:25:04 47° NW 10:29:39 10° NNW
SL-16 R/B 4.3 10:19:12 10° N 10:23:46 24° NE 10:28:18 10° ESE
Cosmos 1954 Rocket 4.4 10:21:58 10° NNW 10:26:34 61° NNE 10:26:34 61° NNE
Resurs 1-4 Rocket 3.0 10:22:55 10° N 10:26:41 41° NNW 10:26:41 41° NNW
MOS 1-B Rocket 4.5 10:22:36 10° N 10:31:07 73° WNW 10:32:18 64° SW
Cosmos 2333 Rocket 3.9 10:26:00 10° NW 10:27:58 21° NW 10:27:58 21° NW
Cosmos 1140 Rocket 4.4 10:27:24 10° NNW 10:30:46 41° NNW 10:30:46 41° NNW
Cosmos 2219 3.7 10:34:59 50° NW 10:34:59 50° NW 10:40:01 10° NNE
SeaSat 1 3.7 10:30:36 10° N 10:34:08 32° NNW 10:34:08 32° NNW
Cosmos 676 Rocket 4.4 10:30:50 10° NNW 10:35:05 57° NNW 10:35:05 57° NNW
Cosmos 2082 4.0 10:36:04 57° ESE 10:36:19 57° ESE 10:41:56 10° NNE
Cosmos 1461 4.3 10:39:35 34° ENE 10:39:35 34° ENE 10:42:10 10° NE
Cosmos 2061 Rocket 4.3 10:41:17 10° N 10:47:40 65° E 10:50:54 30° SSE
Meteor 2-10 4.4 10:52:41 57° WNW 10:52:41 57° WNW 10:58:07 10° N
Cosmos 1812 Rocket 3.9 10:53:18 61° NNE 10:53:18 61° NNE 10:56:57 10° N
CZ-2D R/B 3.9 10:51:39 10° NNE 10:55:50 60° E 10:55:50 60° E
CZ-2D R/B 3.4 10:53:54 10° N 10:57:58 28° WNW 10:57:58 28° WNW
Cosmos 1850 Rocket 4.5 10:57:20 10° N 11:02:30 58° ENE 11:07:23 11° SSE
Cosmos 2173 Rocket 3.9 10:58:11 10° NNW 11:04:24 69° W 11:05:40 55° SSW
Cosmos 1741 Rocket 4.3 11:06:28 10° NNW 11:11:46 69° ENE 11:17:04 10° SSE
ADEOS II 2.1 11:09:49 10° N 11:15:00 61° WNW 11:15:36 56° WSW
Spot 4 Rocket 4.0 11:11:30 10° N 11:16:37 65° WNW 11:17:18 58° WSW
Cosmos 2227 Rocket 2.8 11:17:50 39° WNW 11:18:30 40° WNW 11:23:50 10° N
Cosmos 2058 3.3 11:16:54 10° N 11:20:58 59° E 11:22:42 31° SSE
ARIANE 5 R/B 3.0 11:21:03 10° N 11:25:59 43° WNW 11:26:37 41° W
Cosmos-2242 3.2 11:25:49 40° SSE 11:27:11 65° E 11:31:26 10° NNE
NOSS 3-4 (A) 3.8 11:21:45 10° NNW 11:28:57 88° WSW 11:36:47 10° SSE
NOSS 3-4 (C) 3.8 11:21:51 10° NNW 11:29:03 89° WSW 11:36:53 10° SSE
CZ-2C R/B 2.7 11:25:16 10° N 11:29:16 70° WNW 11:29:33 67° WSW
Cosmos 1242 Rocket 3.7 11:28:36 10° NNW 11:30:34 30° NW 11:30:34 30° NW
Cosmos 2016 Rocket 4.0 11:26:41 10° NNW 11:32:44 59° W 11:35:36 31° SSW
Cosmos 1802 Rocket 4.2 11:29:10 10° NNW 11:35:00 47° W 11:36:58 35° SW
Cosmos 2297 Rocket 3.3 11:34:05 27° WNW 11:35:14 29° WNW 11:40:07 10° N
SEDSat Delta rocket 4.5 11:36:05 35° SW 11:37:44 41° SSW 11:43:54 10° SE
Cosmos 1076 Rocket 3.7 11:38:35 10° NNW 11:42:38 44° W 11:42:48 44° W
Cosmos 2233 Rocket 4.0 11:38:01 10° N 11:44:12 82° E 11:50:19 10° S
Cosmos 2123 Rocket 4.2 11:42:55 32° SW 11:45:28 50° W 11:51:31 10° N
H-2A R/B 3.3 11:41:32 10° NNE 11:45:42 50° E 11:48:54 15° S
Meteor 2-1 Rocket 4.3 11:42:53 27° SSW 11:46:13 72° W 11:52:05 10° N
CZ-4B R/B 3.7 11:51:20 12° NW 11:51:20 12° NW 11:51:41 10° NW
Cosmos 1331 Rocket 4.0 11:49:58 29° SSW 11:52:38 71° WNW 11:57:57 10° NNE
RUBIN 8/PSLV 4.4 11:49:01 10° N 11:53:18 75° WNW 11:55:29 28° SSW
Cosmos 1110 Rocket 4.1 11:51:14 31° SW 11:53:37 61° WNW 11:58:51 10° NNE
PSLV R/B 4.2 11:51:03 10° SSE 11:55:13 71° ENE 11:59:26 10° N
Cosmos 1238 Rocket 4.3 11:53:31 10° NNE 11:56:08 27° E 11:58:54 10° SE
Cosmos 1689 Rocket 4.1 11:58:46 17° NW 11:58:46 17° NW 11:59:49 10° NW
